Rechercher aéroport 
image banner adimage banner adimage banner ad
image banner ad

50CA - St Mary Medical Center

Situé à Long Beach, United States

ICAO - 50CA, IATA -

Données fournies par Airmate  

Information générale

Coordonnées: N33°46'50" W118°11'9"
Élévation : 174 feet MSL.
Variation magnétique : 14° East
Voir autres Aéroports à California

Données opérationnelles

Special qualification required
Heure actuelle UTC:
Heure actuelle locale:
METAR: KLGB 270553Z AUTO 29005KT 10SM OVC018 20/16 A2998 RMK AO2 SLP152 T02000161 10239 20200 51017
TAF: KLGB 270537Z 2706/2806 VRB03KT P6SM OVC018 FM271800 20008KT P6SM SKC FM280000 29009KT P6SM SKC FM280400 VRB03KT P6SM SKC
Voir NOTAMs / SUP AIP / TFR affectant cet aéroport [VIEW]
Fréquences de communication: [VIEW]

Pistes:

Coordonnées de l'aéroport

Adresse: Long Beach United States

Vue satellite de 50CA